Sisseton, SD

5:54 PM CST on November 21, 2017 (GMT -0600)
Sisseton

Weather History for K8D3 - May, 2013

Change the Weather History Date:

Saturday, May 18, 2013

  Actual Average Record
Temperature  
Mean Temperature 71 °F 58 °F  
Max Temperature 84 °F 70 °F 98 °F (1934)
Min Temperature 58 °F 46 °F 31 °F (1968)
Degree Days  
Heating Degree Days 0 8  
Month to date heating degree days 225 185  
Since 1 July heating degree days 8985 8144  
Cooling Degree Days 6 1  
Month to date cooling degree days 18 9  
Year to date cooling degree days 18 10  
Growing Degree Days 20 (Base 50)    
Moisture  
Dew Point 59 °F    
Average Humidity 69    
Maximum Humidity 100    
Minimum Humidity 37    
Precipitation  
Precipitation 0.10 in 0.10 in 0.60 in (1962)
Month to date precipitation 0.27 1.59  
Year to date precipitation 5.89 5.85  
Sea Level Pressure  
Sea Level Pressure 29.74 in    
Wind  
Wind Speed 7 mph (South)    
Max Wind Speed 18 mph    
Max Gust Speed 23 mph    
T = Trace of Precipitation, MM = Missing Value Source: NWS Daily Summary

Daily Weather History Graph

Daily Weather History Graph

Search for Another Location

Airport or City:

Trip Planner

Search our weather history database for the weather conditions in past years. The results will help you decide how hot, cold, wet, or windy it might be!

Date:

Astronomy

May. 18, 2013 Rise Set
Actual Time 5:53 AM CDT 8:56 PM CDT
Civil Twilight 5:18 AM CDT 9:31 PM CDT
Nautical Twilight 4:32 AM CDT 10:17 PM CDT
Astronomical Twilight 3:38 AM CDT 11:12 PM CDT
Moon 1:40 PM CDT (5/18) 2:08 AM CDT (5/18)
Length of Visible Light 16h 13m
Length of Day
15h 03m
First Quarter, 55% of the Moon is Illuminated
May 18
First Quarter
May 24
Full
May 31
Last Quarter
Jun 8
New
Jun 16
First Quarter

Hourly Weather History & Observations

Time (CDT) Temp. Heat Index Dew Point Humidity Pressure Visibility Wind Dir Wind Speed Gust Speed Precip Events Conditions
12:56 AM 59.0 °F - 57.9 °F 96% 29.82 in - SE 13.8 mph - N/A   Unknown
1:56 AM 57.9 °F - 57.9 °F 100% 29.79 in - South 19.6 mph 23.0 mph N/A   Unknown
2:56 AM 59.0 °F - 57.9 °F 96% 29.77 in - NE 6.9 mph - N/A   Unknown
3:56 AM 63.0 °F - 60.1 °F 90% 29.73 in - NNW 10.4 mph - 0.07 in   Unknown
4:56 AM 57.9 °F - 57.9 °F 100% 29.78 in - SE 10.4 mph - N/A   Unknown
5:56 AM 59.0 °F - 57.9 °F 96% 29.80 in - East 8.1 mph - 0.01 in   Unknown
6:56 AM 59.0 °F - 57.9 °F 96% 29.81 in - Calm Calm - 0.02 in   Unknown
7:56 AM 60.1 °F - 59.0 °F 96% 29.83 in - East 6.9 mph - N/A   Unknown
8:56 AM 61.0 °F - 60.1 °F 97% 29.81 in - South 9.2 mph - N/A   Unknown
9:56 AM 62.1 °F - 61.0 °F 96% 29.80 in - South 5.8 mph - N/A   Unknown
10:56 AM 66.9 °F - 63.0 °F 87% 29.76 in - South 5.8 mph - N/A   Unknown
11:56 AM 70.0 °F - 63.0 °F 78% 29.75 in - South 4.6 mph - N/A   Unknown
12:56 PM 75.9 °F - 62.1 °F 62% 29.74 in - South 11.5 mph - N/A   Unknown
1:56 PM 78.1 °F - 59.0 °F 52% 29.74 in - Calm Calm - N/A   Unknown
2:56 PM 81.0 °F 81.0 °F 57.0 °F 44% 29.73 in - South 6.9 mph - N/A   Unknown
3:56 PM 81.0 °F 80.8 °F 55.9 °F 42% 29.72 in - SSW 10.4 mph 16.1 mph N/A   Unknown
4:56 PM 84.0 °F 83.0 °F 55.9 °F 38% 29.71 in - SW 9.2 mph - N/A   Unknown
5:56 PM 82.9 °F 82.1 °F 55.9 °F 39% 29.71 in - WSW 11.5 mph - N/A   Unknown
6:56 PM 82.0 °F 81.7 °F 57.0 °F 42% 29.69 in - WSW 9.2 mph - N/A   Unknown
7:56 PM 80.1 °F 80.6 °F 57.9 °F 47% 29.68 in - Calm Calm - N/A   Unknown
8:56 PM 75.9 °F - 57.0 °F 52% 29.66 in - Calm Calm - N/A   Unknown
9:56 PM 72.0 °F - 59.0 °F 64% 29.67 in - Calm Calm - N/A   Unknown
10:56 PM 69.1 °F - 59.0 °F 70% 29.69 in - South 3.5 mph - N/A   Unknown
11:56 PM 66.9 °F - 61.0 °F 81% 29.63 in - East 3.5 mph - N/A   Unknown